Springfield, VT

9:25 PM EDT on April 24, 2018 (GMT -0400)
Hartness State

Weather History for KVSF - August, 2013

Change the Weather History Date:

Friday, August 16, 2013

  Actual Average Record
Temperature  
Mean Temperature 61 °F 67 °F  
Max Temperature 76 °F 80 °F 93 °F (2002)
Min Temperature 46 °F 55 °F 46 °F (2013)
Degree Days  
Heating Degree Days 4 1  
Month to date heating degree days 16  
Since 1 June heating degree days 129  
Since 1 July heating degree days 33  
Cooling Degree Days 0 4  
Month to date cooling degree days 26 64  
Year to date cooling degree days 392 279  
Since 1 June cooling degree days 368 267  
Growing Degree Days 10 (Base 50)    
Moisture  
Dew Point 52 °F    
Average Humidity 71    
Maximum Humidity 100    
Minimum Humidity 41    
Precipitation  
Precipitation 0.00 in 0.11 in 0.72 in (2008)
Month to date precipitation 1.48 2.00  
Year to date precipitation 24.69 26.59  
Sea Level Pressure  
Sea Level Pressure 30.17 in    
Wind  
Wind Speed 1 mph (WSW)    
Max Wind Speed 12 mph    
Max Gust Speed 16 mph    
Visibility 9 miles    
Events      
T = Trace of Precipitation, MM = Missing Value Source: NWS Daily Summary

Daily Weather History Graph

Daily Weather History Graph

Search for Another Location

Airport or City:

Astronomy

Aug. 16, 2013 Rise Set
Actual Time 5:56 AM EDT 7:51 PM EDT
Civil Twilight 5:25 AM EDT 8:21 PM EDT
Nautical Twilight 4:48 AM EDT 8:59 PM EDT
Astronomical Twilight 4:07 AM EDT 9:39 PM EDT
Moon 4:10 PM EDT (8/16) 12:53 AM EDT (8/16)
Length of Visible Light 14h 55m
Length of Day
13h 54m
Waxing Gibbous, 74% of the Moon is Illuminated
Aug 16
Waxing Gibbous
Aug 20
Full
Aug 28
Last Quarter
Sep 5
New
Sep 12
First Quarter

Hourly Weather History & Observations

Time (EDT) Temp. Dew Point Humidity Pressure Visibility Wind Dir Wind Speed Gust Speed Precip Events Conditions
7:51 AM 46.4 °F 46.4 °F 100% 30.17 in 1.0 mi Calm Calm - N/A   Overcast
7:54 AM 46.9 °F 46.9 °F 100% 30.18 in 1.2 mi Calm Calm - N/A   Overcast
8:08 AM 48.2 °F 48.2 °F 100% 30.17 in 3.0 mi Calm Calm - N/A   Overcast
8:41 AM 51.8 °F 50.0 °F 94% 30.17 in 10.0 mi Calm Calm - N/A   Scattered Clouds
8:54 AM 52.0 °F 51.1 °F 97% 30.18 in 10.0 mi Calm Calm - N/A   Clear
9:54 AM 61.0 °F 54.0 °F 78% 30.17 in 10.0 mi Calm Calm - N/A   Partly Cloudy
10:54 AM 70.0 °F 54.0 °F 57% 30.15 in 10.0 mi SW 4.6 mph - N/A   Partly Cloudy
11:54 AM 71.1 °F 51.1 °F 49% 30.16 in 10.0 mi West 6.9 mph - N/A   Mostly Cloudy
12:54 PM 73.0 °F 50.0 °F 44% 30.15 in 10.0 mi Calm Calm - N/A   Partly Cloudy
1:54 PM 73.9 °F 48.9 °F 41% 30.15 in 10.0 mi West 8.1 mph - N/A   Mostly Cloudy
2:54 PM 73.9 °F 48.9 °F 41% 30.15 in 10.0 mi Calm Calm - N/A   Mostly Cloudy
3:54 PM 75.0 °F 50.0 °F 41% 30.14 in 10.0 mi SW 6.9 mph - N/A   Clear
4:54 PM 75.0 °F 51.1 °F 43% 30.14 in 10.0 mi SW 4.6 mph - N/A   Scattered Clouds
5:54 PM 73.9 °F 52.0 °F 46% 30.15 in 10.0 mi SW 3.5 mph - N/A   Clear
6:54 PM 72.0 °F 55.0 °F 55% 30.16 in 10.0 mi Calm Calm - N/A   Clear
7:54 PM 64.0 °F 57.9 °F 80% 30.18 in 10.0 mi Calm Calm - N/A   Clear
8:54 PM 61.0 °F 57.0 °F 87% 30.20 in 10.0 mi Calm Calm - N/A   Clear
9:54 PM 57.9 °F 55.9 °F 93% 30.21 in 10.0 mi Calm Calm - N/A   Clear
10:54 PM 55.9 °F 54.0 °F 93% 30.21 in 10.0 mi Calm Calm - N/A   Clear
11:54 PM 54.0 °F 53.1 °F 97% 30.22 in 10.0 mi Calm Calm - N/A   Clear